Portada
METAR-TAF:

METAR-TAF

Aeroports :

Kélibia, Tunísia

latitud: 36-51N, longitud: 011-05E, altitud: 29 m

Observació

L'informe es va fer fa 54 minuts, a les 21:00 UTC
Vent 3 kt del Est/Sud-Est, variant entre Nord-Est i Sud/Sud-Oest
Temperatura 17°C
Humitat 100%
Pressió 1019 hPa

METAR: DTTL 222100Z AUTO 11003KT 040V210 NCD 17/17 Q1019

Hora: 22:54 (21:54 UTC)


TAF: manca

Observacions i pronòstics meteorològics de més de 4000 aeroports (METAR i TAF).

Les estacions disponibles són els punts grocs i vermells al mapa.

Posi el ratolí al punt desitjat per veure el nom de l'estació.

Feu clic per veure les observacions i els pronòstics meteorològics.

Per canviar el mapa: feu clic els botons verds amb una creu de color negre per apropar; al botó verd amb un guió per allunyar la imatge; o en les fletxes verdes per a mapes adjacents.


METAR-TAF: